TELSTAR 11N

Last updated on Thu Oct 30 2025 00:02:48 GMT+0000 (Coordinated Universal Time)

1 34111U 09009A 25302.40808860 -.00000241 00000+0 00000+0 0 9990 2 34111 0.0183 250.0192 0002476 306.3498 310.9997 1.00271204 43939
UTC large
Height (km)
Speed (km/s)
/
Latitude / Longitude
Inclination (degrees)
Orbital Period (minutes)
Azimuth
Elevation
Range (km)
Doppler Factor

Next 0 passes for location: London (51.5072 / 0.1276)

Sorry there are no passes over London.